�������l�o���
Date,Time,MP-1(��Sv/h),MP-2(��Sv/h),MP-3(��Sv/h),MP-4(��Sv/h),MP-5(��Sv/h),MP-6(��Sv/h),MP-7(��Sv/h),MP-8(��Sv/h),����,����(m/s),���J
2013/03/12,00:00,3.1,5.7,6.8,6.1,6.5,2.6,6.0,4.0,��,6.9,��
2013/03/12,00:10,3.1,5.7,6.8,6.1,6.5,2.6,6.0,4.0,��,5.7,��
2013/03/12,00:20,3.1,5.7,6.8,6.1,6.5,2.6,6.1,4.0,��,4.5,��
2013/03/12,00:30,3.1,5.7,6.8,6.1,6.5,2.6,6.1,4.0,���쐼,3.4,��
2013/03/12,00:40,3.1,5.8,6.8,6.1,6.5,2.6,6.1,4.0,���쐼,2.5,��
2013/03/12,00:50,3.1,5.8,6.8,6.1,6.5,2.6,6.0,4.0,���쐼,4.8,��
2013/03/12,01:00,3.1,5.7,6.8,6.1,6.5,2.6,6.0,4.0,��,3.6,��
2013/03/12,01:10,3.1,5.7,6.8,6.1,6.5,2.6,6.0,4.0,��,5.2,��
2013/03/12,01:20,3.1,5.7,6.8,6.1,6.5,2.6,6.0,4.0,���k��,4.9,��
2013/03/12,01:30,3.1,5.7,6.8,6.1,6.5,2.6,6.1,4.0,�k��,6.0,��
2013/03/12,01:40,3.1,5.7,6.8,6.1,6.5,2.6,6.0,4.0,���k��,6.3,��
2013/03/12,01:50,3.1,5.7,6.8,6.1,6.5,2.6,6.1,4.0,���k��,6.7,��
2013/03/12,02:00,3.1,5.7,6.8,6.1,6.5,2.6,6.1,4.0,��,6.3,��
2013/03/12,02:10,3.1,5.7,6.8,6.1,6.5,2.6,6.0,4.0,��,6.6,��
2013/03/12,02:20,3.1,5.7,6.8,6.1,6.5,2.6,6.0,4.0,��,6.3,��
2013/03/12,02:30,3.1,5.7,6.8,6.1,6.5,2.6,6.0,4.0,��,6.3,��
2013/03/12,02:40,3.1,5.7,6.8,6.1,6.5,2.6,6.1,4.0,��,5.6,��
2013/03/12,02:50,3.1,5.7,6.8,6.1,6.5,2.6,6.0,4.0,��,6.0,��
2013/03/12,03:00,3.1,5.7,6.8,6.1,6.5,2.6,6.1,4.0,��,4.7,��
2013/03/12,03:10,3.1,5.7,6.8,6.1,6.5,2.6,6.0,4.0,���쐼,4.7,��
2013/03/12,03:20,3.1,5.7,6.8,6.1,6.5,2.6,6.0,4.0,���쐼,4.5,��
2013/03/12,03:30,3.1,5.7,6.8,6.1,6.5,2.6,6.0,4.0,�쐼,4.2,��
2013/03/12,03:40,3.1,5.7,6.8,6.1,6.5,2.6,6.0,4.0,�쐼,3.8,��
2013/03/12,03:50,3.1,5.7,6.8,6.1,6.5,2.6,6.0,4.0,��쐼,3.0,��
2013/03/12,04:00,3.1,5.7,6.8,6.1,6.5,2.6,6.0,4.0,��쐼,3.0,��
2013/03/12,04:10,3.1,5.7,6.8,6.1,6.5,2.6,6.0,4.0,��,3.0,��
2013/03/12,04:20,3.1,5.7,6.8,6.1,6.5,2.6,6.0,4.0,��쐼,2.9,��
2013/03/12,04:30,3.1,5.7,6.8,6.1,6.5,2.6,6.0,4.0,��,2.9,��
2013/03/12,04:40,3.1,5.7,6.8,6.1,6.5,2.6,6.0,4.0,��,1.9,��
2013/03/12,04:50,3.1,5.7,6.8,6.1,6.5,2.6,6.0,4.0,��쓌,1.6,��
2013/03/12,05:00,3.1,5.7,6.8,6.1,6.4,2.6,6.0,4.0,��쐼,0.7,��
2013/03/12,05:10,3.1,5.7,6.8,6.1,6.5,2.6,6.0,4.0,�k��,0.6,��
2013/03/12,05:20,3.1,5.7,6.8,6.1,6.5,2.6,6.0,4.0,�k�k��,1.6,��
2013/03/12,05:30,3.1,5.7,6.8,6.1,6.5,2.6,6.0,4.0,�k�k��,1.7,��
2013/03/12,05:40,3.1,5.7,6.8,6.1,6.5,2.6,6.0,4.0,�k�k��,2.1,��
2013/03/12,05:50,3.1,5.7,6.8,6.1,6.5,2.6,6.0,4.0,�k�k��,2.1,��
2013/03/12,06:00,3.1,5.7,6.8,6.1,6.5,2.6,6.0,4.0,�k��,2.2,��
2013/03/12,06:10,3.1,5.7,6.8,6.1,6.5,2.6,6.0,4.0,�k��,2.8,��
2013/03/12,06:20,3.1,5.7,6.8,6.1,6.4,2.6,6.0,4.0,�k�k��,2.1,��
2013/03/12,06:30,3.1,5.7,6.8,6.1,6.4,2.6,6.0,4.0,�k��,1.7,��
2013/03/12,06:40,3.1,5.7,6.8,6.1,6.5,2.6,6.0,4.0,�k�k��,1.9,��
2013/03/12,06:50,3.1,5.7,6.8,6.1,6.5,2.6,6.0,4.0,�k��,1.3,��
2013/03/12,07:00,3.1,5.7,6.8,6.1,6.5,2.6,6.0,4.0,���k��,1.2,��
2013/03/12,07:10,3.1,5.7,6.8,6.1,6.4,2.6,6.0,4.0,���k��,1.5,��
2013/03/12,07:20,3.1,5.7,6.8,6.1,6.5,2.6,6.0,4.0,��,1.2,��
2013/03/12,07:30,3.1,5.7,6.8,6.1,6.5,2.6,6.0,4.0,��,1.2,��
2013/03/12,07:40,3.1,5.7,6.8,6.1,6.5,2.6,6.0,4.0,���쐼,1.1,��
2013/03/12,07:50,3.1,5.7,6.8,6.1,6.5,2.6,6.1,4.0,��쐼,1.3,��
2013/03/12,08:00,3.1,-,6.8,6.1,6.5,2.6,6.1,4.0,�쐼,0.8,��
2013/03/12,08:10,3.1,-,6.8,6.1,6.5,2.6,6.1,4.0,��쓌,0.6,��
2013/03/12,08:20,3.1,-,6.8,6.1,6.5,2.6,6.1,4.0,-,CALM,��
2013/03/12,08:30,3.1,-,6.8,6.1,6.5,2.6,6.1,4.0,�k�k��,0.8,��
2013/03/12,08:40,3.1,-,6.8,6.1,6.5,2.6,6.0,4.0,�쓌,1.8,��
2013/03/12,08:50,3.1,-,6.8,6.1,6.5,2.6,6.0,4.0,�쓌,2.3,��
2013/03/12,09:00,3.1,-,6.8,6.1,6.5,2.6,6.1,4.0,���쓌,3.0,��
2013/03/12,09:10,3.1,-,6.8,6.2,6.5,2.6,6.1,4.0,���쓌,2.8,��
2013/03/12,09:20,3.1,-,6.8,6.2,6.5,2.5,6.0,4.0,���쓌,2.7,��
2013/03/12,09:30,3.1,-,6.8,6.2,6.5,2.6,6.0,4.0,���쓌,3.6,��
2013/03/12,09:40,3.1,-,6.8,6.1,6.5,2.6,6.1,4.0,���쓌,2.5,��
2013/03/12,09:50,3.1,-,6.8,6.1,6.5,2.6,6.0,4.0,�쓌,3.2,��
2013/03/12,10:00,3.1,-,6.8,6.2,6.5,2.6,6.1,4.0,�쓌,3.8,��
2013/03/12,10:10,3.1,-,6.8,6.2,6.5,2.6,6.1,4.0,���쓌,3.4,��
2013/03/12,10:20,3.1,-,6.8,6.2,6.5,2.6,6.1,4.0,�쓌,3.9,��
2013/03/12,10:30,3.1,-,6.8,6.2,6.5,2.6,6.1,4.0,���쓌,3.9,��
2013/03/12,10:40,3.1,-,6.8,6.2,6.5,2.6,6.1,4.0,�쓌,3.7,��
2013/03/12,10:50,3.1,-,6.8,6.2,6.5,2.6,6.0,4.0,�쓌,2.9,��
2013/03/12,11:00,3.1,-,6.8,6.2,6.5,2.6,6.0,4.0,��쓌,3.1,��
2013/03/12,11:10,3.1,5.7,6.8,6.2,6.5,2.6,6.1,4.0,�쓌,3.6,��
2013/03/12,11:20,3.1,5.8,6.8,6.2,6.5,2.6,6.1,4.0,��쓌,4.1,��
2013/03/12,11:30,3.1,5.8,6.9,6.2,6.5,2.6,6.1,4.0,�쓌,5.4,��
2013/03/12,11:40,3.1,5.8,6.9,6.2,6.5,2.6,6.1,-,��쓌,6.1,��
2013/03/12,11:50,3.1,5.8,6.9,6.2,6.5,2.6,6.1,-,��쓌,6.6,��
2013/03/12,12:00,3.1,5.8,6.9,6.2,6.5,2.6,6.1,-,��쓌,8.5,��
2013/03/12,12:10,3.1,5.8,6.9,6.2,6.5,2.6,6.1,-,��쓌,8.5,��
2013/03/12,12:20,3.1,5.8,6.9,6.2,6.5,2.6,6.1,-,��쓌,9.3,��
2013/03/12,12:30,3.1,5.8,6.9,6.2,6.5,2.6,6.1,-,��쓌,7.4,��
2013/03/12,12:40,3.1,5.8,6.9,6.2,6.5,2.6,6.1,-,��쓌,8.2,��
2013/03/12,12:50,3.1,5.8,6.9,6.2,6.5,2.6,6.1,-,��쓌,8.8,��
2013/03/12,13:00,3.1,5.8,6.9,6.2,6.5,2.6,6.1,-,��쓌,7.4,��
2013/03/12,13:10,3.1,5.8,6.9,6.2,6.5,2.6,6.1,-,��쓌,8.3,��
2013/03/12,13:20,3.1,5.8,6.9,6.2,6.5,2.6,6.1,-,��쓌,7.2,��
2013/03/12,13:30,3.1,5.8,6.9,6.2,6.5,2.6,6.1,-,��쓌,8.5,��
2013/03/12,13:40,3.1,5.8,6.9,6.2,6.5,2.6,6.1,-,��쓌,9.1,��
2013/03/12,13:50,3.1,5.8,6.9,6.2,6.5,2.6,6.1,-,��쓌,8.2,��
2013/03/12,14:00,3.1,5.8,6.9,6.2,6.5,2.6,6.1,-,��쓌,11.3,��
2013/03/12,14:10,3.2,5.8,6.9,6.2,6.5,2.6,6.1,-,��쓌,9.6,��
2013/03/12,14:20,3.2,5.8,6.9,6.2,6.5,2.6,6.1,-,��쓌,10.7,��
2013/03/12,14:30,3.2,5.8,6.9,6.2,6.5,2.6,6.1,-,��,8.8,��
2013/03/12,14:40,3.1,5.8,6.9,6.2,6.5,2.6,6.1,-,��,8.5,��
2013/03/12,14:50,3.1,5.8,6.9,6.2,6.5,2.6,6.1,-,��,10.2,��
2013/03/12,15:00,3.1,5.8,6.9,6.2,6.5,2.6,6.1,-,��,7.9,��
2013/03/12,15:10,3.1,5.8,6.9,6.2,6.5,2.6,6.1,-,��쓌,9.9,��
2013/03/12,15:20,3.1,5.8,6.9,6.2,6.5,2.6,6.1,-,��,8.5,��
2013/03/12,15:30,3.1,5.8,6.9,6.2,6.5,2.6,6.1,-,��쓌,9.3,��
2013/03/12,15:40,3.1,5.8,6.9,6.2,6.5,2.6,6.1,-,��쓌,10.1,��
2013/03/12,15:50,3.1,5.8,6.9,6.2,6.5,2.6,6.1,-,��쓌,9.1,��
2013/03/12,16:00,3.1,5.8,6.9,6.2,6.5,2.6,6.1,-,��쓌,9.3,��
2013/03/12,16:10,3.1,5.8,6.9,6.2,6.5,2.6,6.1,-,��,7.7,��
2013/03/12,16:20,3.1,5.8,6.9,6.2,6.5,2.6,6.1,4.0,��,7.2,��
2013/03/12,16:30,3.1,5.8,6.9,6.2,6.5,2.6,6.1,4.0,��,8.5,��
2013/03/12,16:40,3.1,5.8,6.9,6.2,6.5,2.6,6.1,4.0,��,7.4,��
2013/03/12,16:50,3.1,5.8,6.9,6.2,6.5,2.6,6.1,4.0,��,7.7,��
2013/03/12,17:00,3.1,5.8,6.9,6.2,6.5,2.6,6.1,4.0,��,6.5,��
2013/03/12,17:10,3.1,5.8,6.9,6.2,6.5,2.6,6.1,4.0,��,6.4,��
2013/03/12,17:20,3.1,5.8,6.9,6.2,6.5,2.6,6.1,4.0,��,7.1,��
2013/03/12,17:30,3.1,5.8,6.9,6.2,6.5,2.6,6.1,4.0,��,7.8,��
2013/03/12,17:40,3.1,5.8,6.9,6.2,6.5,2.6,6.1,4.0,��,7.5,��
2013/03/12,17:50,3.1,5.8,6.9,6.2,6.5,2.6,6.1,4.0,��,7.5,��
2013/03/12,18:00,3.1,5.8,6.9,6.2,6.5,2.6,6.1,4.0,��,6.9,��
2013/03/12,18:10,3.1,5.8,6.9,6.2,6.5,2.6,6.1,4.0,��쐼,5.1,��
2013/03/12,18:20,3.1,5.8,6.9,6.2,6.5,2.6,6.1,4.0,��쐼,3.4,��
2013/03/12,18:30,3.1,5.8,6.9,6.2,6.5,2.6,6.1,4.0,�쐼,2.5,��
2013/03/12,18:40,3.1,5.8,6.9,6.2,6.5,2.6,6.1,4.0,�쐼,2.4,��
2013/03/12,18:50,3.1,5.8,6.8,6.2,6.5,2.6,6.1,4.0,���쐼,2.0,��
2013/03/12,19:00,3.1,5.8,6.8,6.2,6.5,2.6,6.1,4.0,���쐼,1.9,��
2013/03/12,19:10,3.1,5.8,6.8,6.2,6.5,2.6,6.1,4.0,�쐼,2.4,��
2013/03/12,19:20,3.1,5.8,6.8,6.2,6.5,2.6,6.1,4.0,�쐼,3.4,��
2013/03/12,19:30,3.1,5.8,6.8,6.2,6.5,2.6,6.1,4.0,��쐼,4.1,��
2013/03/12,19:40,3.1,5.8,6.8,6.2,6.5,2.6,6.1,4.0,��쐼,3.7,��
2013/03/12,19:50,3.1,5.8,6.8,6.2,6.5,2.6,6.1,4.0,��쐼,5.2,��
2013/03/12,20:00,3.1,5.8,6.8,6.2,6.5,2.6,6.1,4.0,��쐼,5.0,��
2013/03/12,20:10,3.1,5.8,6.8,6.2,6.5,2.6,6.1,4.0,��쐼,6.7,��
2013/03/12,20:20,3.1,5.8,6.8,6.2,6.5,2.6,6.1,4.0,�쐼,6.4,��
2013/03/12,20:30,3.1,5.8,6.8,6.2,6.5,2.6,6.1,4.0,�쐼,6.8,��
2013/03/12,20:40,3.1,5.8,6.8,6.2,6.5,2.6,6.1,4.0,�쐼,6.4,��
2013/03/12,20:50,3.1,5.8,6.8,6.2,6.5,2.6,6.1,4.0,�쐼,6.0,��
2013/03/12,21:00,3.1,5.8,6.8,6.2,6.5,2.6,6.1,4.0,�쐼,5.0,��
2013/03/12,21:10,3.1,5.8,6.8,6.2,6.5,2.6,6.1,4.0,��쐼,5.6,��
2013/03/12,21:20,3.1,5.7,6.8,6.2,6.5,2.6,6.1,4.0,��쐼,4.4,��
2013/03/12,21:30,3.1,5.7,6.8,6.2,6.5,2.6,6.1,4.0,�쐼,5.5,��
2013/03/12,21:40,3.1,5.8,6.8,6.1,6.5,2.6,6.1,4.0,�쐼,4.5,��
2013/03/12,21:50,3.1,5.8,6.8,6.1,6.5,2.6,6.1,4.0,�쐼,4.7,��
2013/03/12,22:00,3.1,5.7,6.8,6.1,6.5,2.6,6.1,4.0,�쐼,4.3,��
2013/03/12,22:10,3.1,5.7,6.8,6.1,6.5,2.6,6.1,4.0,�쐼,5.1,��
2013/03/12,22:20,3.1,5.8,6.8,6.1,6.5,2.6,6.1,4.0,�쐼,5.4,��
2013/03/12,22:30,3.1,5.7,6.8,6.1,6.5,2.6,6.1,4.0,��쐼,5.2,��
2013/03/12,22:40,3.1,5.8,6.8,6.2,6.5,2.6,6.1,4.0,�쐼,4.6,��
2013/03/12,22:50,3.1,5.8,6.8,6.2,6.5,2.6,6.1,4.0,��쐼,5.7,��
2013/03/12,23:00,3.1,5.8,6.8,6.2,6.5,2.6,6.1,4.0,��쐼,5.6,��
2013/03/12,23:10,3.1,5.8,6.8,6.2,6.5,2.6,6.1,4.0,��쐼,6.9,��
2013/03/12,23:20,3.1,5.8,6.8,6.2,6.5,2.6,6.1,4.0,��쐼,7.2,��
2013/03/12,23:30,3.1,5.8,6.8,6.2,6.5,2.6,6.1,4.0,��쐼,7.4,��
2013/03/12,23:40,3.1,5.8,6.8,6.2,6.5,2.6,6.1,4.0,��쐼,7.7,��
2013/03/12,23:50,3.1,5.7,6.8,6.2,6.5,2.6,6.1,4.0,��쐼,6.6,��
